Tracking 18673 objects as of 25-June-2017
HD Live streaming from Space Station
objects crossing your sky now

COSMOS 198

Track COSMOS 198 now!
10-day predictions
COSMOS 198 is classified as:


NORAD ID: 3081
Int'l Code: 1967-127A
Perigee: 898.8 km
Apogee: 950.1 km
Inclination: 65.1 °
Period: 103.4 minutes
Semi major axis: 7295 km
RCS: 2.5177 m2 (large)
Launch date: December 27, 1967
Source: Commonwealth of Independent States (former USSR) (CIS)
Launch site: TYURATAM MISSILE AND SPACE COMPLEX (TTMTR)
Your satellite tracking list
Your tracking list is empty





NASA's NSSDC Master Catalog

Two Line Element Set (TLE):
1  3081U 67127A   17176.28215202 -.00000068 +00000-0 +16910-4 0  9995
2  3081 065.1417 219.4778 0035158 221.1848 138.6564 13.93224542516778
Source of the keplerian elements: AFSPC